Location: Namasale
(1.5000°N, 32.6167°E)
Time: 21:25:18
(UTC+00:00)

Courier 1B Rocket - All Passes

Search period start: 17 April 2021 00:00
Search period end: 27 April 2021 00:00
Orbit: 920 x 1202 km, 28.2° (Epoch: 17 April)

Date Brightness Start Highest point End Pass type
(mag) Time Alt. Az. Time Alt. Az. Time Alt. Az.
17 Apr - 01:03:06 10° NW 01:10:23 41° NNE 01:17:28 10° E visible
17 Apr - 02:56:39 10° WNW 03:04:19 65° SSW 03:11:34 10° SE visible
17 Apr - 04:53:12 10° WSW 04:58:14 19° SSW 05:03:04 10° SSE daylight
17 Apr - 12:35:06 10° SSW 12:39:46 22° SSE 12:44:30 10° ESE daylight
17 Apr - 14:26:57 10° WSW 14:33:16 84° SSE 14:39:55 10° ENE daylight
17 Apr - 16:21:29 10° W 16:26:57 28° NNW 16:32:44 10° NNE visible
17 Apr - 22:11:57 10° N 22:13:51 11° NNE 22:15:46 10° NNE night (unlit)
18 Apr - 00:02:17 10° NNW 00:08:54 29° NNE 00:15:27 10° E visible
18 Apr - 01:55:08 10° WNW 02:03:00 88° NNE 02:10:33 10° ESE visible
18 Apr - 03:50:26 10° W 03:56:51 29° SSW 04:02:59 10° SSE daylight
18 Apr - 11:35:25 10° S 11:38:32 14° SSE 11:41:40 10° SE daylight
18 Apr - 13:26:10 10° SW 13:32:15 53° SSE 13:38:31 10° ENE daylight
18 Apr - 15:19:47 10° W 15:25:43 40° NNW 15:31:59 10° NE daylight
18 Apr - 17:16:57 10° NW 17:20:03 13° NNW 17:23:13 10° N visible
18 Apr - 23:01:43 10° NNW 23:07:18 21° NNE 23:12:55 10° ENE night (unlit)
19 Apr - 00:53:55 10° NW 01:01:38 61° NNE 01:09:13 10° ESE visible
19 Apr - 02:48:13 10° W 02:55:30 43° SSW 03:02:30 10° SE visible
19 Apr - 04:46:33 10° SW 04:49:46 13° SSW 04:52:53 10° S daylight
19 Apr - 12:25:38 10° SW 12:31:13 34° SSE 12:36:51 10° E daylight
19 Apr - 14:18:26 10° WSW 14:24:36 62° NNW 14:31:04 10° NE daylight
19 Apr - 16:14:12 10° WNW 16:18:32 18° NNW 16:23:02 10° NNE visible
19 Apr - 22:01:30 10° NNW 22:05:37 15° NNE 22:09:46 10° NE night (unlit)
19 Apr - 23:52:55 10° NW 00:00:13 43° NNE 00:07:30 10° E visible
20 Apr - 01:46:25 10° WNW 01:54:10 64° SSW 02:01:42 10° SE visible
20 Apr - 03:42:55 10° WSW 03:48:14 20° SSW 03:53:22 10° SSE daylight
20 Apr - 11:25:20 10° SSW 11:30:06 22° SSE 11:34:49 10° ESE daylight
20 Apr - 13:17:20 10° WSW 13:23:35 86° SSE 13:30:00 10° ENE daylight
20 Apr - 15:12:02 10° W 15:17:11 26° NNW 15:22:34 10° NNE daylight
20 Apr - 21:02:18 10° N 21:03:49 11° NNE 21:05:20 10° NNE night (unlit)
20 Apr - 22:52:12 10° NNW 22:58:44 30° NNE 23:05:23 10° E night (unlit)
21 Apr - 00:44:56 10° WNW 00:52:49 89° NE 01:00:36 10° ESE visible
21 Apr - 02:40:12 10° W 02:46:46 29° SSW 02:53:10 10° SSE visible
21 Apr - 10:25:27 10° S 10:28:51 15° SSE 10:32:11 10° ESE daylight
21 Apr - 12:16:29 10° SW 12:22:36 55° SSE 12:28:43 10° ENE daylight
21 Apr - 14:10:16 10° W 14:16:01 38° NNW 14:21:56 10° NE daylight
21 Apr - 16:07:51 10° NW 16:10:15 12° NNW 16:12:41 10° N visible
21 Apr - 21:51:44 10° NNW 21:57:11 21° NNE 22:02:46 10° ENE night (unlit)
21 Apr - 23:43:47 10° NW 23:51:26 63° NNE 23:59:10 10° ESE visible
22 Apr - 01:38:01 10° W 01:45:21 43° SSW 01:52:34 10° SE visible
22 Apr - 03:36:13 10° SW 03:39:45 14° SSW 03:43:14 10° S daylight
22 Apr - 11:15:50 10° SW 11:21:34 35° SSE 11:27:11 10° E daylight
22 Apr - 13:08:49 10° WSW 13:14:57 59° NNW 13:21:10 10° NE daylight
22 Apr - 15:04:50 10° WNW 15:08:47 17° NNW 15:12:50 10° NNE daylight
22 Apr - 20:51:41 10° N 20:55:33 15° NNE 20:59:31 10° NE night (unlit)
22 Apr - 22:42:53 10° NW 22:50:03 43° NNE 22:57:23 10° E night (unlit)
23 Apr - 00:36:17 10° WNW 00:43:58 63° SSW 00:51:41 10° SE visible
23 Apr - 02:32:42 10° WSW 02:38:09 20° SSW 02:43:30 10° SSE visible
23 Apr - 10:15:24 10° SSW 10:20:25 23° SSE 10:25:17 10° ESE daylight
23 Apr - 12:07:38 10° WSW 12:13:57 88° SSE 12:20:13 10° ENE daylight
23 Apr - 14:02:32 10° W 14:07:30 25° NNW 14:12:34 10° NNE daylight
23 Apr - 21:42:16 10° NNW 21:48:36 30° NNE 21:55:12 10° E night (unlit)
23 Apr - 23:34:53 10° WNW 23:42:36 89° SW 23:50:30 10° ESE visible
24 Apr - 01:30:03 10° W 01:36:37 29° SSW 01:43:10 10° SSE visible
24 Apr - 09:15:18 10° SSW 09:19:07 16° SSE 09:22:51 10° ESE daylight
24 Apr - 11:06:40 10° SW 11:12:57 57° SSE 11:19:03 10° ENE daylight
24 Apr - 13:00:39 10° W 13:06:21 37° NNW 13:12:05 10° NE daylight
24 Apr - 14:58:50 10° NW 15:00:31 11° NNW 15:02:13 10° N daylight
24 Apr - 20:41:56 10° NNW 20:47:08 21° NNE 20:52:31 10° ENE night (unlit)
24 Apr - 22:33:48 10° NW 22:41:15 64° NNE 22:49:00 10° ESE night (unlit)
25 Apr - 00:27:57 10° W 00:35:11 42° SSW 00:42:29 10° SE visible
25 Apr - 02:26:00 10° SW 02:29:41 14° SSW 02:33:21 10° S visible
25 Apr - 08:16:06 10° S 08:17:39 11° SSE 08:19:11 10° SE daylight
25 Apr - 10:05:53 10° SW 10:11:53 37° SSE 10:17:37 10° E daylight
25 Apr - 11:59:05 10° WSW 12:05:19 57° NNW 12:11:25 10° NE daylight
25 Apr - 13:55:23 10° WNW 13:59:05 16° NNW 14:02:49 10° NNE daylight
25 Apr - 19:42:04 10° N 19:45:34 14° NNE 19:49:10 10° NE visible
25 Apr - 21:33:00 10° NW 21:39:54 43° NNE 21:47:09 10° E night (unlit)
25 Apr - 23:26:17 10° WNW 23:33:47 61° SSW 23:41:31 10° SE night (unlit)
26 Apr - 01:22:36 10° WSW 01:28:01 20° SSW 01:33:28 10° SSE visible
26 Apr - 09:05:18 10° SSW 09:10:41 25° SSE 09:15:50 10° E daylight
26 Apr - 10:57:46 10° WSW 11:04:19 89° NNW 11:10:34 10° ENE daylight
26 Apr - 12:52:55 10° WNW 12:57:50 24° NNW 13:02:44 10° NNE daylight
26 Apr - 20:32:29 10° NNW 20:38:33 29° NNE 20:44:57 10° E night (unlit)
26 Apr - 22:24:58 10° WNW 22:32:26 88° SSW 22:40:17 10° ESE night (unlit)
